This is the latest recevied weather packets stored in our database for station/object HB9KBJ-4. If no packets are shown the sender has not sent any weather packets the latest 10 day(s).
| Time | Temp. | Humidity | Pressure | Rain* | Wind** | Luminosity | Snow |
|---|---|---|---|---|---|---|---|
| 1777627538 | 13.33° C | 67% | - | 0 mm | - | - | - |
| 1777627237 | 12.78° C | 67% | - | 0 mm | - | - | - |
| 1777626937 | 12.78° C | 68% | - | 0 mm | - | - | - |
| 1777626637 | 12.78° C | 68% | - | 0 mm | - | - | - |
| 1777626336 | 12.22° C | 69% | - | 0 mm | - | - | - |
| 1777626036 | 12.22° C | 68% | - | 0 mm | - | - | - |
| 1777625736 | 11.67° C | 68% | - | 0 mm | - | - | - |
| 1777625436 | 11.67° C | 70% | - | 0 mm | - | - | - |
| 1777624835 | 11.67° C | 71% | - | 0 mm | - | - | - |
| 1777624535 | 11.67° C | 71% | - | 0 mm | - | - | - |
| 1777624235 | 11.11° C | 70% | - | 0 mm | - | - | - |
| 1777623634 | 10.56° C | 73% | - | 0 mm | - | - | - |
| 1777623334 | 10.56° C | 72% | - | 0 mm | - | - | - |
| 1777623033 | 10° C | 73% | - | 0 mm | - | - | - |
| 1777622733 | 10° C | 74% | - | 0 mm | - | - | - |
| 1777622433 | 9.44° C | 75% | - | 0 mm | - | - | - |
| 1777622133 | 9.44° C | 75% | - | 0 mm | - | - | - |
| 1777621832 | 9.44° C | 76% | - | 0 mm | - | - | - |
| 1777621532 | 9.44° C | 78% | - | 0 mm | - | - | - |
| 1777620932 | 8.89° C | 76% | - | 0 mm | - | - | - |
| 1777620631 | 8.89° C | 77% | - | 0 mm | - | - | - |
| 1777620331 | 8.33° C | 79% | - | 0 mm | - | - | - |
| 1777620031 | 8.33° C | 79% | - | 0 mm | - | - | - |
| 1777619730 | 8.33° C | 80% | - | 0 mm | - | - | - |
| 1777619130 | 7.78° C | 81% | - | 0 mm | - | - | - |
* Rain since midnight (hover to see other rain measurements)
** Current wind speed in m/s (hover to see current wind gust speed)